Regional Weather Roundup
Issued by NWS

Home | Current Version | Previous Version | Text Only | Print | Product List | Glossary Off
Versions: 1 2 3 4 5 6 7 8 9 10 11 12 13 14 15 16 17 18 19 20 21 22 23 24 25 26 27 28 29 30 31 32 33 34 35 36 37 38 39 40 41 42 43 44 45 46 47 48 49 50

523
ASUS43 KDMX 042208
RWRIA

WEATHER ROUNDUP FOR IOWA
NATIONAL WEATHER SERVICE DES MOINES IA
500 PM CDT WED MAY 04 2016

NOTE: "FAIR" INDICATES FEW OR NO CLOUDS BELOW 12,000 FEET WITH NO
SIGNIFICANT WEATHER AND/OR OBSTRUCTIONS TO VISIBILITY.

* - THESE STATIONS ARE NOT NWS STATIONS...THUS NOT UNDER NWS
QUALITY CONTROL.  THEY ALSO DO NOT REPORT WEATHER SUCH
AS PRECIPITATION OR FOG.

IAZ001>003-012>014-020>022-031>034-043>046-042300-
   NORTHWEST IOWA

CITY           SKY/WX    TMP DP  RH WIND       PRES   REMARKS
CARROLL *      SUNNY     66  36  32 NW18G26   29.98S
CHEROKEE *     SUNNY     66  37  34 N12G21    29.99F
DENISON *      SUNNY     66  36  32 N20       29.98S
LE MARS *      SUNNY     68  36  30 NW17G23   30.01F
ORANGE CITY *  SUNNY     68  36  30 N8G17     30.00F
SHELDON *      SUNNY     70  34  26 NW18      29.98F
SIOUX CITY     SUNNY     68  43  40 NW14      30.01F
SPENCER        SUNNY     67  34  29 NW20G26   29.99F
STORM LAKE *   SUNNY     66  34  30 N15G26    29.99F
$$

IAZ055>058-069>071-079>083-090>094-042300-
   SOUTHWEST IOWA

CITY           SKY/WX    TMP DP  RH WIND       PRES   REMARKS
ATLANTIC *     SUNNY     66  34  30 NW16G24   29.99S
AUDUBON *      SUNNY     66  34  30 NW14G22   30.00S
CLARINDA *       N/A     68  36  30 MISG      30.00S
COUNCIL BLFS * SUNNY     66  37  34 N15       30.01S
CRESTON *      SUNNY     64  36  34 N14G23    29.99S
HARLAN  *      SUNNY     68  32  26 N20G28    30.03S
LAMONI         SUNNY     64  37  36 NW18G28   29.96F
RED OAK *      SUNNY     70  36  28 N15G22    29.99F
SHENANDOAH *   SUNNY     68  37  32 N18G25    30.00S
$$

IAZ047>049-059>061-072>074-084-042300-
   CENTRAL IOWA

CITY           SKY/WX    TMP DP  RH WIND       PRES   REMARKS
AMES           SUNNY     67  33  28 N20G32    29.94S
ANKENY *       SUNNY     66  32  28 NW21      29.94S
BOONE *        SUNNY     64  34  32 NW21G30   29.95R
CHARITON *     SUNNY     64  34  32 NW16G24   29.94S
DES MOINES     MOSUNNY   68  30  24 N17G23    29.95S
GRINNELL*      SUNNY     66  28  24 NW24      29.91S
KNOXVILLE *    SUNNY     66  32  28 NW14G25   29.92R
MARSHALLTOWN   SUNNY     66  32  28 NW17G29   29.91F
NEWTON *       SUNNY     66  30  26 N22G29    29.92S
PELLA *        SUNNY     68  28  22 NW18G28   29.93F
PERRY *          N/A     66  34  30 NW21G28   29.97S
$$

IAZ004>006-015-016-023>025-035-036-042300-
   NORTH CENTRAL IOWA

CITY           SKY/WX    TMP DP  RH WIND       PRES   REMARKS
ALGONA *       SUNNY     66  32  28 N17G30    29.96S
CLARION *      SUNNY     66  30  26 N20G33    29.94S
ESTHERVILLE    SUNNY     66  35  31 N20G28    29.97F
FORT DODGE *   SUNNY     66  37  34 NW10G24   29.97S
MASON CITY     SUNNY     66  33  29 NW21G28   29.93F
FOREST CITY *  SUNNY     63  32  31 N20G28    29.93S
WEBSTER CITY * SUNNY     68  32  26 N24       29.93S
IOWA FALLS *     N/A     68  32  26 N22G28    29.93F
$$

IAZ007>011-017>019-026>030-037>042-050>054-066-042300-
   NORTHEAST IOWA

CITY           SKY/WX    TMP DP  RH WIND       PRES   REMARKS
CEDAR RAPIDS   MOSUNNY   65  33  30 N23G33    29.87S
CHARLES CITY * SUNNY     64  28  25 NW17G33   29.91S
CLINTON *      PTSUNNY   60  35  39 NW16G28   29.85S
DECORAH *      MOSUNNY   63  32  31 NW15G22   29.87F
DUBUQUE        MOSUNNY   61  34  36 NW21G29   29.85S
MONTICELLO *   PTSUNNY   63  32  31 N22       29.86S
OELWEIN *      SUNNY     64  30  27 N20G31    29.89S
WATERLOO       SUNNY     65  30  27 N21G33    29.89S
$$

IAZ064-065-067-068-078-042300-
   EAST CENTRAL IOWA

CITY           SKY/WX    TMP DP  RH WIND       PRES   REMARKS
DAVENPORT      MOSUNNY   63  33  32 N20G30    29.86S
IOWA CITY      MOSUNNY   65  30  27 NW13G26   29.88F
MT. PLEASANT * MOSUNNY   66  36  32 NW18G24   29.88F
MUSCATINE *    SUNNY     64  30  27 NW14G26   29.87S
QUAD CITIES    MOSUNNY   64  33  31 N17G23    29.83F
$$

IAZ062-063-075>077-085>089-095>099-042300-
   SOUTHEAST IOWA

CITY           SKY/WX    TMP DP  RH WIND       PRES   REMARKS
BURLINGTON     SUNNY     63  35  35 N17G25    29.87S
FAIRFIELD *    MOSUNNY   64  32  29 N18G28    29.89S
FORT MADISON * PTSUNNY   63  37  39 NW15      29.89S
KEOKUK *       PTSUNNY   64  37  36 NW14G21   29.88S
OSKALOOSA *      N/A     66  30  26 NW21G29   29.91S
OTTUMWA        MOSUNNY   66  32  28 NW24G31   29.90F
WASHINGTON *   MOSUNNY   64  32  29 N21G30    29.89S
$$

ABBREVIATIONS USED IN REMARKS
   TC - TEMPERATURES IN CELSIUS
  WCI - WIND CHILL INDEX
   HX - HEAT INDEX
  VSB - VISIBILITY
$$





USA.gov is the U.S. government's official web portal to all federal, state and local government web resources and services.